Time,TemperatureF,DewpointF,PressureIn,WindDirection,WindDirectionDegrees,WindSpeedMPH,WindSpeedGustMPH,Humidity,HourlyPrecipIn,Conditions,Clouds,dailyrainin,SoftwareType,DateUTC
2013-02-18 00:04:00,26.1,23.0,30.00,NNE,23,2.0,3.0,86,0.00,,,0.00,weatherlink.com 1.10,2013-02-18 07:04:00,
2013-02-18 00:19:00,26.0,23.0,30.00,NNE,23,0.0,2.0,87,0.00,,,0.00,weatherlink.com 1.10,2013-02-18 07:19:00,
2013-02-18 00:34:00,25.2,22.0,30.01,NNE,23,0.0,0.0,87,0.00,,,0.00,weatherlink.com 1.10,2013-02-18 07:34:00,
2013-02-18 00:49:00,24.8,22.0,30.01,NNE,23,2.0,2.0,89,0.00,,,0.00,weatherlink.com 1.10,2013-02-18 07:49:00,
2013-02-18 01:04:00,24.5,22.0,30.02,NNE,23,0.0,3.0,88,0.00,,,0.00,weatherlink.com 1.10,2013-02-18 08:04:00,
2013-02-18 01:19:00,24.0,21.0,30.03,NNE,23,3.0,4.0,88,0.00,,,0.00,weatherlink.com 1.10,2013-02-18 08:19:00,
2013-02-18 01:34:00,23.5,21.0,30.03,NNE,23,0.0,5.0,89,0.00,,,0.00,weatherlink.com 1.10,2013-02-18 08:34:00,
2013-02-18 01:49:00,22.4,19.0,30.04,NNE,23,2.0,3.0,87,0.00,,,0.00,weatherlink.com 1.10,2013-02-18 08:49:00,
2013-02-18 02:04:00,21.2,18.0,30.04,NNE,23,0.0,2.0,88,0.00,,,0.00,weatherlink.com 1.10,2013-02-18 09:04:00,
2013-02-18 02:20:00,20.6,18.0,30.05,NNE,23,0.0,4.0,89,0.00,,,0.00,weatherlink.com 1.10,2013-02-18 09:20:00,
2013-02-18 02:35:00,21.4,19.0,30.05,NNE,23,0.0,4.0,90,0.00,,,0.00,weatherlink.com 1.10,2013-02-18 09:35:00,
2013-02-18 02:49:00,20.9,18.0,30.05,NNE,23,3.0,3.0,89,0.00,,,0.00,weatherlink.com 1.10,2013-02-18 09:49:00,
2013-02-18 03:04:00,21.1,18.0,30.06,NNE,23,3.0,5.0,89,0.00,,,0.00,weatherlink.com 1.10,2013-02-18 10:04:00,
2013-02-18 03:20:00,21.4,19.0,30.06,NNE,23,0.0,5.0,89,0.00,,,0.00,weatherlink.com 1.10,2013-02-18 10:20:00,
2013-02-18 03:34:00,21.6,19.0,30.07,NNE,23,0.0,0.0,89,0.00,,,0.00,weatherlink.com 1.10,2013-02-18 10:34:00,
2013-02-18 03:49:00,22.5,20.0,30.07,NNE,23,0.0,1.0,90,0.00,,,0.00,weatherlink.com 1.10,2013-02-18 10:49:00,
2013-02-18 04:04:00,23.3,21.0,30.08,NNE,23,0.0,1.0,89,0.00,,,0.00,weatherlink.com 1.10,2013-02-18 11:04:00,
2013-02-18 04:19:00,23.9,21.0,30.08,NNE,23,0.0,5.0,89,0.00,,,0.00,weatherlink.com 1.10,2013-02-18 11:19:00,
2013-02-18 04:34:00,24.8,22.0,30.09,NNE,23,0.0,3.0,89,0.00,,,0.00,weatherlink.com 1.10,2013-02-18 11:34:00,
2013-02-18 04:49:00,25.2,22.0,30.09,NNE,23,1.0,4.0,88,0.00,,,0.00,weatherlink.com 1.10,2013-02-18 11:49:00,
2013-02-18 05:05:00,25.8,23.0,30.10,NNE,23,0.0,0.0,88,0.00,,,0.00,weatherlink.com 1.10,2013-02-18 12:05:00,
2013-02-18 05:20:00,25.8,23.0,30.10,NNE,23,0.0,3.0,87,0.00,,,0.00,weatherlink.com 1.10,2013-02-18 12:20:00,
2013-02-18 05:35:00,25.6,22.0,30.11,NNE,23,0.0,4.0,87,0.00,,,0.00,weatherlink.com 1.10,2013-02-18 12:35:00,
2013-02-18 05:50:00,25.8,23.0,30.12,NNE,23,0.0,1.0,87,0.00,,,0.00,weatherlink.com 1.10,2013-02-18 12:50:00,
2013-02-18 06:05:00,25.9,23.0,30.12,NNE,23,1.0,3.0,87,0.00,,,0.00,weatherlink.com 1.10,2013-02-18 13:05:00,
2013-02-18 06:20:00,26.4,23.0,30.12,NNE,23,0.0,3.0,88,0.00,,,0.00,weatherlink.com 1.10,2013-02-18 13:20:00,
2013-02-18 06:35:00,25.9,23.0,30.12,NNE,23,0.0,4.0,87,0.00,,,0.00,weatherlink.com 1.10,2013-02-18 13:35:00,
2013-02-18 06:50:00,25.5,22.0,30.13,NNE,23,0.0,3.0,87,0.00,,,0.00,weatherlink.com 1.10,2013-02-18 13:50:00,
2013-02-18 07:05:00,25.8,23.0,30.13,NNE,23,5.0,11.0,87,0.00,,,0.00,weatherlink.com 1.10,2013-02-18 14:05:00,
2013-02-18 07:20:00,25.8,22.0,30.13,NNE,23,9.0,12.0,85,0.00,,,0.00,weatherlink.com 1.10,2013-02-18 14:20:00,
2013-02-18 07:35:00,25.9,22.0,30.14,NNE,23,7.0,9.0,85,0.00,,,0.00,weatherlink.com 1.10,2013-02-18 14:35:00,
2013-02-18 07:50:00,26.0,22.0,30.14,NNE,23,4.0,9.0,84,0.00,,,0.00,weatherlink.com 1.10,2013-02-18 14:50:00,
2013-02-18 08:05:00,25.7,21.0,30.14,NNE,28,7.0,12.0,83,0.00,,,0.00,weatherlink.com 1.10,2013-02-18 15:05:00,
2013-02-18 08:20:00,25.8,20.0,30.15,NNE,28,11.0,12.0,80,0.00,,,0.00,weatherlink.com 1.10,2013-02-18 15:20:00,
2013-02-18 08:35:00,25.7,20.0,30.15,NNE,32,10.0,13.0,79,0.00,,,0.00,weatherlink.com 1.10,2013-02-18 15:35:00,
2013-02-18 08:50:00,25.7,20.0,30.16,NNE,33,7.0,13.0,78,0.00,,,0.00,weatherlink.com 1.10,2013-02-18 15:50:00,
2013-02-18 09:05:00,25.8,20.0,30.16,NNE,33,9.0,13.0,78,0.00,,,0.00,weatherlink.com 1.10,2013-02-18 16:05:00,
2013-02-18 09:20:00,25.7,20.0,30.16,NNE,30,13.0,14.0,79,0.00,,,0.00,weatherlink.com 1.10,2013-02-18 16:20:00,
2013-02-18 09:35:00,25.7,20.0,30.17,NNE,23,13.0,15.0,79,0.00,,,0.00,weatherlink.com 1.10,2013-02-18 16:35:00,
2013-02-18 09:50:00,26.6,20.0,30.17,NNE,22,9.0,12.0,77,0.00,,,0.00,weatherlink.com 1.10,2013-02-18 16:50:00,
2013-02-18 10:05:00,27.7,21.0,30.18,NNE,26,7.0,15.0,75,0.00,,,0.00,weatherlink.com 1.10,2013-02-18 17:05:00,
2013-02-18 10:20:00,28.1,20.0,30.18,NNE,26,11.0,13.0,73,0.00,,,0.00,weatherlink.com 1.10,2013-02-18 17:20:00,
2013-02-18 10:35:00,28.3,20.0,30.18,NNE,26,8.0,12.0,71,0.00,,,0.00,weatherlink.com 1.10,2013-02-18 17:35:00,
2013-02-18 10:50:00,28.9,21.0,30.18,NNE,25,3.0,10.0,71,0.00,,,0.00,weatherlink.com 1.10,2013-02-18 17:50:00,
2013-02-18 11:05:00,29.3,21.0,30.18,NNE,32,7.0,12.0,70,0.00,,,0.00,weatherlink.com 1.10,2013-02-18 18:05:00,
2013-02-18 11:21:00,29.6,21.0,30.17,NE,37,4.0,13.0,69,0.00,,,0.00,weatherlink.com 1.10,2013-02-18 18:21:00,
2013-02-18 11:36:00,30.1,20.0,30.18,NE,45,4.0,9.0,66,0.00,,,0.00,weatherlink.com 1.10,2013-02-18 18:36:00,
2013-02-18 11:51:00,31.2,20.0,30.18,NE,45,0.0,7.0,64,0.00,,,0.00,weatherlink.com 1.10,2013-02-18 18:51:00,
2013-02-18 12:06:00,31.9,20.0,30.18,NE,45,3.0,9.0,62,0.00,,,0.00,weatherlink.com 1.10,2013-02-18 19:06:00,
2013-02-18 12:21:00,31.2,19.0,30.17,NE,45,0.0,9.0,61,0.00,,,0.00,weatherlink.com 1.10,2013-02-18 19:21:00,
2013-02-18 12:39:00,31.6,19.0,30.16,NE,45,3.0,7.0,60,0.00,,,0.00,weatherlink.com 1.10,2013-02-18 19:39:00,
2013-02-18 12:51:00,32.0,19.0,30.16,ENE,71,8.0,11.0,60,0.00,,,0.00,weatherlink.com 1.10,2013-02-18 19:51:00,
2013-02-18 13:06:00,31.9,20.0,30.16,ENE,65,7.0,8.0,61,0.00,,,0.00,weatherlink.com 1.10,2013-02-18 20:06:00,
2013-02-18 13:21:00,31.4,19.0,30.15,ENE,60,3.0,8.0,61,0.00,,,0.00,weatherlink.com 1.10,2013-02-18 20:21:00,
2013-02-18 13:36:00,31.5,19.0,30.15,ENE,60,2.0,9.0,60,0.00,,,0.00,weatherlink.com 1.10,2013-02-18 20:36:00,
2013-02-18 13:51:00,32.0,20.0,30.14,ENE,60,4.0,9.0,61,0.00,,,0.00,weatherlink.com 1.10,2013-02-18 20:51:00,
2013-02-18 14:06:00,31.9,19.0,30.14,ENE,60,1.0,6.0,59,0.00,,,0.00,weatherlink.com 1.10,2013-02-18 21:06:00,
2013-02-18 14:21:00,32.8,19.0,30.14,ENE,61,3.0,7.0,58,0.00,,,0.00,weatherlink.com 1.10,2013-02-18 21:21:00,
2013-02-18 14:36:00,32.9,19.0,30.14,ENE,60,0.0,9.0,56,0.00,,,0.00,weatherlink.com 1.10,2013-02-18 21:36:00,
2013-02-18 14:51:00,32.9,19.0,30.14,ENE,60,5.0,5.0,56,0.00,,,0.00,weatherlink.com 1.10,2013-02-18 21:51:00,
2013-02-18 15:06:00,32.9,19.0,30.14,NE,52,4.0,12.0,56,0.00,,,0.00,weatherlink.com 1.10,2013-02-18 22:06:00,
2013-02-18 15:21:00,33.0,19.0,30.14,NE,52,4.0,8.0,56,0.00,,,0.00,weatherlink.com 1.10,2013-02-18 22:21:00,
2013-02-18 15:36:00,32.8,19.0,30.14,NE,52,5.0,10.0,56,0.00,,,0.00,weatherlink.com 1.10,2013-02-18 22:36:00,
2013-02-18 16:06:00,32.9,19.0,30.14,NE,52,7.0,9.0,57,0.00,,,0.00,weatherlink.com 1.10,2013-02-18 23:06:00,
2013-02-18 16:21:00,33.0,19.0,30.14,NE,52,5.0,9.0,57,0.00,,,0.00,weatherlink.com 1.10,2013-02-18 23:21:00,
2013-02-18 16:36:00,33.1,19.0,30.14,NE,51,8.0,10.0,57,0.00,,,0.00,weatherlink.com 1.10,2013-02-18 23:36:00,
2013-02-18 16:51:00,32.6,18.0,30.14,ENE,57,10.0,10.0,56,0.00,,,0.00,weatherlink.com 1.10,2013-02-18 23:51:00,
2013-02-18 17:06:00,32.0,17.0,30.14,ENE,59,9.0,9.0,55,0.00,,,0.00,weatherlink.com 1.10,2013-02-19 00:06:00,
2013-02-18 17:36:00,30.6,17.0,30.14,ENE,59,4.0,7.0,57,0.00,,,0.00,weatherlink.com 1.10,2013-02-19 00:36:00,
2013-02-18 17:51:00,29.9,17.0,30.14,ENE,59,2.0,4.0,58,0.00,,,0.00,weatherlink.com 1.10,2013-02-19 00:51:00,
2013-02-18 18:06:00,29.2,16.0,30.14,ENE,59,3.0,3.0,58,0.00,,,0.00,weatherlink.com 1.10,2013-02-19 01:06:00,
2013-02-18 18:21:00,28.8,16.0,30.14,ENE,59,2.0,3.0,59,0.00,,,0.00,weatherlink.com 1.10,2013-02-19 01:21:00,
2013-02-18 18:36:00,28.6,16.0,30.14,ENE,59,3.0,3.0,59,0.00,,,0.00,weatherlink.com 1.10,2013-02-19 01:36:00,
2013-02-18 18:51:00,28.0,16.0,30.13,ENE,59,2.0,3.0,61,0.00,,,0.00,weatherlink.com 1.10,2013-02-19 01:51:00,
2013-02-18 19:06:00,26.9,16.0,30.13,ENE,59,0.0,4.0,63,0.00,,,0.00,weatherlink.com 1.10,2013-02-19 02:06:00,
2013-02-18 19:21:00,25.9,16.0,30.12,ENE,59,1.0,5.0,66,0.00,,,0.00,weatherlink.com 1.10,2013-02-19 02:21:00,
2013-02-18 19:36:00,25.6,16.0,30.12,ENE,59,2.0,5.0,67,0.00,,,0.00,weatherlink.com 1.10,2013-02-19 02:36:00,
2013-02-18 19:51:00,24.6,16.0,30.12,ENE,59,5.0,6.0,69,0.00,,,0.00,weatherlink.com 1.10,2013-02-19 02:51:00,
2013-02-18 20:06:00,24.2,16.0,30.11,ENE,59,2.0,5.0,71,0.00,,,0.00,weatherlink.com 1.10,2013-02-19 03:06:00,
2013-02-18 20:21:00,23.3,16.0,30.11,ENE,59,5.0,7.0,74,0.00,,,0.00,weatherlink.com 1.10,2013-02-19 03:21:00,
2013-02-18 20:36:00,23.3,17.0,30.11,ENE,59,7.0,7.0,77,0.00,,,0.00,weatherlink.com 1.10,2013-02-19 03:36:00,
2013-02-18 20:51:00,23.2,17.0,30.11,ENE,59,5.0,7.0,77,0.00,,,0.00,weatherlink.com 1.10,2013-02-19 03:51:00,
2013-02-18 21:06:00,23.6,17.0,30.11,ENE,59,7.0,8.0,77,0.00,,,0.00,weatherlink.com 1.10,2013-02-19 04:06:00,
2013-02-18 21:21:00,24.0,18.0,30.11,NE,46,9.0,10.0,78,0.00,,,0.00,weatherlink.com 1.10,2013-02-19 04:21:00,
2013-02-18 21:36:00,23.8,18.0,30.11,NNE,32,7.0,10.0,78,0.00,,,0.00,weatherlink.com 1.10,2013-02-19 04:36:00,
2013-02-18 21:51:00,23.3,17.0,30.11,NNE,32,7.0,9.0,78,0.00,,,0.00,weatherlink.com 1.10,2013-02-19 04:51:00,
2013-02-18 22:07:00,22.8,17.0,30.11,NNE,32,4.0,8.0,79,0.00,,,0.00,weatherlink.com 1.10,2013-02-19 05:07:00,
2013-02-18 22:21:00,22.6,17.0,30.11,NNE,32,5.0,8.0,78,0.00,,,0.00,weatherlink.com 1.10,2013-02-19 05:21:00,
2013-02-18 22:36:00,21.5,16.0,30.11,NNE,32,6.0,7.0,80,0.00,,,0.00,weatherlink.com 1.10,2013-02-19 05:36:00,
2013-02-18 22:51:00,21.5,17.0,30.10,NNE,32,4.0,7.0,82,0.00,,,0.00,weatherlink.com 1.10,2013-02-19 05:51:00,
2013-02-18 23:06:00,19.0,14.0,30.10,NNE,32,3.0,3.0,79,0.00,,,0.00,weatherlink.com 1.10,2013-02-19 06:06:00,
2013-02-18 23:21:00,17.7,13.0,30.10,NNE,32,0.0,4.0,82,0.00,,,0.00,weatherlink.com 1.10,2013-02-19 06:21:00,
2013-02-18 23:37:00,17.3,13.0,30.10,NNE,32,0.0,0.0,82,0.00,,,0.00,weatherlink.com 1.10,2013-02-19 06:37:00,
2013-02-18 23:51:00,17.4,13.0,30.10,NNE,32,0.0,2.0,84,0.00,,,0.00,weatherlink.com 1.10,2013-02-19 06:51:00,